Weather History for Gastonia, NC

Change the Weather History Date:

Thursday, December 5, 2013

  Actual Average (KCLT) Record (KCLT)
Temperature  
Mean Temperature 63 °F 45 °F  
Max Temperature 66 °F 56 °F 75 °F (1998)
Min Temperature 60 °F 34 °F 18 °F (1969)
Degree Days  
Heating Degree Days 2 20  
Month to date heating degree days 98  
Since 1 July heating degree days 734  
Cooling Degree Days 0 0  
Month to date cooling degree days 0  
Year to date cooling degree days 1517  
Growing Degree Days 13 (Base 50)    
Moisture  
Dew Point 63 °F    
Average Humidity 98    
Maximum Humidity 100    
Minimum Humidity 93    
Precipitation  
Precipitation 0.50 in 0.11 in 2.06 in (1969)
Month to date precipitation 0.56  
Year to date precipitation 38.94  
Snow  
Snow 0.00 in 0.00 in T in (1901)
Month to date snowfall 0.0  
Since 1 July snowfall 0.1  
Snow Depth -    
Sea Level Pressure  
Sea Level Pressure 30.07 in    
Wind  
Wind Speed 4 mph (SSW)    
Max Wind Speed 8 mph    
Max Gust Speed 20 mph    
Visibility 4 miles    
Events Rain    
T = Trace of Precipitation, MM = Missing Value Source: NWS Daily Summary

Daily Weather History Graph

Daily Weather History Graph

Search for Another Location

Airport:

Trip Planner

Search our weather history database for the weather conditions in past years. The results will help you decide how hot, cold, wet, or windy it might be!

Date:

Astronomy

Dec. 05, 2013 Rise Set
Actual Time 7:18 AM EST 5:12 PM EST
Civil Twilight 6:50 AM EST 5:40 PM EST
Nautical Twilight 6:18 AM EST 6:11 PM EST
Astronomical Twilight 5:48 AM EST 6:42 PM EST
Moon 9:40 AM EST (12/5) 8:27 PM EST (12/5)
Length of Visible Light 10h 49m
Length of Day
9h 53m
Waxing Crescent, 10% of the Moon is Illuminated
Dec 5
Waxing Crescent
Dec 9
First Quarter
Dec 17
Full
Dec 25
Last Quarter
Jan 1
New

Hourly Weather History & Observations

Time (EST) Temp. Dew Point Humidity Pressure Visibility Wind Dir Wind Speed Gust Speed Precip Events Conditions
12:01 AM 60.8 °F 60.8 °F 100% 30.08 in 5.0 mi Calm Calm - N/A   Overcast
12:54 AM 60.1 °F 59.0 °F 96% 30.07 in 4.0 mi South 3.5 mph - N/A   Overcast
1:54 AM 60.1 °F 60.1 °F 100% 30.07 in 3.0 mi South 3.5 mph - N/A   Overcast
2:08 AM 60.8 °F 60.8 °F 100% 30.08 in 2.5 mi South 4.6 mph - N/A   Overcast
2:30 AM 60.8 °F 59.0 °F 94% 30.07 in 1.5 mi SSW 4.6 mph - 0.00 in Rain Light Rain
2:54 AM 60.1 °F 59.0 °F 96% 30.06 in 2.0 mi SSW 4.6 mph - 0.01 in Rain Light Rain
7:21 AM 62.6 °F 60.8 °F 94% 30.09 in - SSW 5.8 mph - N/A   Unknown
7:50 AM 62.6 °F 62.6 °F 100% 30.10 in 4.0 mi SSW 3.5 mph - N/A Rain Light Rain
7:54 AM 62.1 °F 62.1 °F 100% 30.09 in 5.0 mi SSW 6.9 mph - N/A   Overcast
8:18 AM 62.6 °F 62.6 °F 100% 30.11 in 2.0 mi SSW 4.6 mph - 0.01 in Rain Light Rain
8:47 AM 62.6 °F 62.6 °F 100% 30.12 in 5.0 mi SSW 4.6 mph - 0.02 in   Overcast
8:54 AM 62.1 °F 62.1 °F 100% 30.11 in 3.0 mi SSW 4.6 mph - 0.02 in Rain Light Rain
8:59 AM 62.6 °F 62.6 °F 100% 30.12 in 1.8 mi SSW 4.6 mph - 0.01 in Rain Rain
9:34 AM 62.6 °F 62.6 °F 100% 30.12 in 1.0 mi SSW 4.6 mph - 0.22 in Rain Heavy Rain
9:49 AM 62.6 °F 62.6 °F 100% 30.12 in 2.5 mi South 4.6 mph - 0.23 in Rain Light Rain
9:54 AM 62.1 °F 62.1 °F 100% 30.12 in 2.0 mi South 4.6 mph - 0.24 in Rain Rain
10:03 AM 62.6 °F 62.6 °F 100% 30.12 in 1.0 mi South 4.6 mph - 0.07 in Rain Heavy Rain
10:10 AM 62.6 °F 62.6 °F 100% 30.12 in 0.8 mi South 4.6 mph - 0.18 in Rain Heavy Rain
10:21 AM 62.6 °F 62.6 °F 100% 30.12 in 2.5 mi South 5.8 mph - 0.20 in Rain Light Rain
10:28 AM 62.6 °F 62.6 °F 100% 30.12 in 6.0 mi Variable 3.5 mph - 0.20 in Rain Light Rain
10:54 AM 63.0 °F 62.1 °F 97% 30.11 in 5.0 mi South 4.6 mph - 0.20 in   Overcast
11:14 AM 62.6 °F 62.6 °F 100% 30.11 in 4.0 mi SSW 5.8 mph - N/A   Overcast
11:54 AM 64.0 °F 62.1 °F 93% 30.09 in 5.0 mi SSW 4.6 mph - N/A   Overcast
12:54 PM 64.9 °F 63.0 °F 93% 30.06 in 6.0 mi SSW 5.8 mph - N/A   Overcast
1:54 PM 64.9 °F 63.0 °F 93% 30.05 in 7.0 mi SSW 8.1 mph - N/A   Overcast
2:22 PM 64.4 °F 62.6 °F 94% 30.05 in 4.0 mi SSW 5.8 mph - N/A   Overcast
2:54 PM 64.9 °F 63.0 °F 93% 30.04 in 7.0 mi SSW 5.8 mph - N/A   Overcast
3:54 PM 64.9 °F 63.0 °F 93% 30.03 in 5.0 mi South 6.9 mph - N/A   Overcast
4:19 PM 64.4 °F 64.4 °F 100% 30.04 in 2.0 mi SSW 3.5 mph - N/A   Overcast
4:28 PM 64.4 °F 64.4 °F 100% 30.04 in 1.5 mi SSW 4.6 mph - N/A   Overcast
4:54 PM 64.0 °F 64.0 °F 100% 30.04 in 1.8 mi SSW 6.9 mph - N/A   Overcast
5:14 PM 64.4 °F 64.4 °F 100% 30.05 in 2.5 mi South 5.8 mph - 0.00 in   Overcast
5:21 PM 64.4 °F 64.4 °F 100% 30.05 in 3.0 mi SSW 4.6 mph - 0.00 in   Overcast
5:54 PM 64.9 °F 64.0 °F 97% 30.04 in 6.0 mi South 5.8 mph - 0.00 in   Overcast
6:54 PM 64.9 °F 64.0 °F 97% 30.05 in 6.0 mi Variable 4.6 mph - N/A   Overcast
7:54 PM 64.9 °F 64.9 °F 100% 30.04 in 6.0 mi South 8.1 mph - N/A   Overcast
8:54 PM 64.9 °F 64.9 °F 100% 30.04 in 4.0 mi South 6.9 mph - 0.02 in Rain Light Rain
9:54 PM 66.0 °F 64.9 °F 96% 30.04 in 7.0 mi South 6.9 mph - 0.01 in Rain Light Rain
10:54 PM 66.0 °F 64.9 °F 96% 30.03 in 9.0 mi South 8.1 mph - 0.00 in   Overcast
11:09 PM 66.2 °F 64.4 °F 94% 30.04 in 9.0 mi South 8.1 mph 19.6 mph N/A   Overcast
11:20 PM 66.2 °F 64.4 °F 94% 30.04 in 9.0 mi South 5.8 mph - N/A   Overcast
11:54 PM 66.0 °F 64.9 °F 96% 30.03 in 9.0 mi Variable 5.8 mph - N/A   Overcast